When you browse on this site, cookies collect data to enhance your experience and personalize the content and advertising you see.
Visit our Privacy Policy to learn more. By continuing to use the site, you agree to this use of cookies and data.
  • în România
  • Lista ţărilor
  • Pe 7 zile
  • Temperatura apei
  • Hartă satelitară
  • Meteo pe hartă
  • Widget-uri
  • user-avatar
    Intrare

    Meteo pe oră la Dremuchevo

    Astăzi, 20 Aprilie, Sâmbătă

    Timp Temperatura Precipitaţii Vânt Presiune Umiditate
    00:00 +6°C° 0.4 mm 2 m/s 751 mmHg 84%
    01:00 +5°C° 0.4 mm 2 m/s 751 mmHg 88%
    02:00 +5°C° 0.4 mm 2 m/s 750 mmHg 92%
    03:00 +5°C° 0.3 mm 2 m/s 750 mmHg 92%
    04:00 +4°C° 0.3 mm 2 m/s 750 mmHg 93%
    05:00 +4°C° 0.3 mm 2 m/s 750 mmHg 93%
    06:00 +5°C° 0.1 mm 2 m/s 750 mmHg 89%
    07:00 +5°C° 0.1 mm 2 m/s 750 mmHg 85%
    08:00 +4°C° 0.1 mm 3 m/s 750 mmHg 80%
    09:00 +5°C° 0 mm 3 m/s 750 mmHg 74%
    10:00 +7°C° 0 mm 2 m/s 751 mmHg 68%
    11:00 +8°C° 0 mm 2 m/s 751 mmHg 62%
    12:00 +8°C° 0 mm 2 m/s 751 mmHg 61%
    13:00 +8°C° 0 mm 2 m/s 751 mmHg 60%
    14:00 +8°C° 0 mm 2 m/s 751 mmHg 60%
    15:00 +8°C° 0 mm 2 m/s 751 mmHg 60%
    16:00 +8°C° 0 mm 2 m/s 751 mmHg 61%
    17:00 +7°C° 0 mm 2 m/s 752 mmHg 61%
    18:00 +6°C° 0 mm 2 m/s 752 mmHg 68%
    19:00 +5°C° 0 mm 2 m/s 752 mmHg 74%
    20:00 +3°C° 0 mm 2 m/s 752 mmHg 81%
    21:00 +3°C° 0 mm 2 m/s 753 mmHg 84%
    22:00 +3°C° 0 mm 1 m/s 753 mmHg 88%
    23:00 +3°C° 0 mm 1 m/s 753 mmHg 92%

    Mâine, 21 Aprilie, Duminică

    Timp Temperatura Precipitaţii Vânt Presiune Umiditate
    00:00 +3°C° 0 mm 1 m/s 753 mmHg 93%
    01:00 +2°C° 0 mm 1 m/s 753 mmHg 94%
    02:00 +2°C° 0 mm 1 m/s 753 mmHg 95%
    03:00 +2°C° 0 mm 1 m/s 754 mmHg 96%
    04:00 +2°C° 0 mm 1 m/s 754 mmHg 96%
    05:00 +2°C° 0 mm 1 m/s 754 mmHg 97%
    06:00 +4°C° 0 mm 1 m/s 754 mmHg 90%
    07:00 +5°C° 0 mm 1 m/s 754 mmHg 84%
    08:00 +7°C° 0 mm 1 m/s 755 mmHg 78%
    09:00 +9°C° 0 mm 1 m/s 755 mmHg 71%
    10:00 +11°C° 0 mm 1 m/s 755 mmHg 65%
    11:00 +12°C° 0 mm 0 m/s 755 mmHg 59%
    12:00 +13°C° 0 mm 1 m/s 755 mmHg 57%
    13:00 +13°C° 0 mm 1 m/s 754 mmHg 55%
    14:00 +13°C° 0 mm 1 m/s 754 mmHg 53%
    15:00 +13°C° 0 mm 1 m/s 754 mmHg 53%
    16:00 +13°C° 0 mm 1 m/s 754 mmHg 54%
    17:00 +13°C° 0 mm 1 m/s 754 mmHg 54%
    18:00 +11°C° 0 mm 1 m/s 754 mmHg 60%
    19:00 +9°C° 0 mm 1 m/s 754 mmHg 67%
    20:00 +8°C° 0 mm 1 m/s 754 mmHg 73%
    21:00 +7°C° 0 mm 1 m/s 754 mmHg 75%
    22:00 +7°C° 0 mm 1 m/s 754 mmHg 78%
    23:00 +6°C° 0 mm 1 m/s 754 mmHg 81%

    Poimâine, 22 Aprilie, Luni

    Timp Temperatura Precipitaţii Vânt Presiune Umiditate
    00:00 +6°C° 0 mm 1 m/s 754 mmHg 81%
    01:00 +5°C° 0 mm 1 m/s 754 mmHg 82%
    02:00 +5°C° 0 mm 1 m/s 755 mmHg 82%
    03:00 +5°C° 0 mm 1 m/s 755 mmHg 81%
    04:00 +5°C° 0 mm 1 m/s 755 mmHg 81%
    05:00 +4°C° 0 mm 1 m/s 755 mmHg 80%
    06:00 +7°C° 0 mm 1 m/s 755 mmHg 73%
    07:00 +9°C° 0 mm 1 m/s 755 mmHg 66%
    08:00 +10°C° 0 mm 2 m/s 755 mmHg 59%
    09:00 +12°C° 0 mm 2 m/s 755 mmHg 53%
    10:00 +14°C° 0 mm 2 m/s 755 mmHg 48%
    11:00 +15°C° 0 mm 2 m/s 755 mmHg 42%
    12:00 +14°C° 0 mm 3 m/s 755 mmHg 40%
    13:00 +16°C° 0 mm 3 m/s 754 mmHg 38%
    14:00 +17°C° 0 mm 3 m/s 754 mmHg 37%
    15:00 +16°C° 0 mm 2 m/s 754 mmHg 39%
    16:00 +16°C° 0 mm 2 m/s 754 mmHg 42%
    17:00 +16°C° 0 mm 2 m/s 753 mmHg 44%
    18:00 +14°C° 0 mm 2 m/s 753 mmHg 50%
    19:00 +12°C° 0 mm 2 m/s 753 mmHg 56%
    20:00 +9°C° 0 mm 2 m/s 754 mmHg 63%
    21:00 +9°C° 0 mm 2 m/s 754 mmHg 66%
    22:00 +8°C° 0 mm 2 m/s 754 mmHg 70%
    23:00 +7°C° 0 mm 2 m/s 754 mmHg 73%

    23 Aprilie, Marţi

    Timp Temperatura Precipitaţii Vânt Presiune Umiditate
    00:00 +7°C° 0 mm 2 m/s 754 mmHg 76%
    01:00 +7°C° 0 mm 2 m/s 754 mmHg 80%
    02:00 +6°C° 0 mm 2 m/s 754 mmHg 83%
    03:00 +6°C° 0 mm 2 m/s 754 mmHg 84%
    04:00 +6°C° 0 mm 2 m/s 754 mmHg 86%
    05:00 +6°C° 0 mm 2 m/s 755 mmHg 87%
    06:00 +8°C° 0 mm 2 m/s 755 mmHg 77%
    07:00 +10°C° 0 mm 3 m/s 755 mmHg 68%
    08:00 +12°C° 0 mm 3 m/s 755 mmHg 58%
    09:00 +14°C° 0 mm 4 m/s 755 mmHg 52%
    10:00 +15°C° 0 mm 4 m/s 755 mmHg 45%
    11:00 +17°C° 0 mm 4 m/s 755 mmHg 39%
    12:00 +18°C° 0 mm 4 m/s 755 mmHg 37%
    13:00 +18°C° 0 mm 4 m/s 755 mmHg 36%
    14:00 +18°C° 0 mm 4 m/s 754 mmHg 34%
    15:00 +18°C° 0 mm 4 m/s 754 mmHg 37%
    16:00 +18°C° 0 mm 3 m/s 754 mmHg 40%
    17:00 +17°C° 0 mm 2 m/s 754 mmHg 43%
    18:00 +15°C° 0 mm 2 m/s 754 mmHg 50%
    19:00 +13°C° 0 mm 2 m/s 754 mmHg 57%
    20:00 +12°C° 0 mm 2 m/s 754 mmHg 64%
    21:00 +10°C° 0 mm 2 m/s 755 mmHg 67%
    22:00 +9°C° 0 mm 2 m/s 755 mmHg 71%
    23:00 +9°C° 0 mm 2 m/s 755 mmHg 74%

    24 Aprilie, Miercuri

    Timp Temperatura Precipitaţii Vânt Presiune Umiditate
    00:00 +8°C° 0 mm 2 m/s 755 mmHg 77%
    01:00 +8°C° 0 mm 2 m/s 756 mmHg 79%
    02:00 +7°C° 0 mm 2 m/s 756 mmHg 82%
    03:00 +7°C° 0 mm 2 m/s 756 mmHg 82%
    04:00 +7°C° 0 mm 2 m/s 756 mmHg 82%
    05:00 +7°C° 0 mm 2 m/s 756 mmHg 83%
    06:00 +9°C° 0 mm 2 m/s 756 mmHg 74%
    07:00 +12°C° 0 mm 2 m/s 757 mmHg 66%
    08:00 +14°C° 0 mm 2 m/s 757 mmHg 58%
    09:00 +14°C° 0 mm 3 m/s 757 mmHg 52%
    10:00 +17°C° 0 mm 3 m/s 757 mmHg 47%
    11:00 +18°C° 0 mm 3 m/s 757 mmHg 41%
    12:00 +18°C° 0 mm 3 m/s 757 mmHg 41%
    13:00 +19°C° 0 mm 3 m/s 756 mmHg 40%
    14:00 +19°C° 0 mm 3 m/s 756 mmHg 39%
    15:00 +19°C° 0 mm 2 m/s 756 mmHg 41%
    16:00 +19°C° 0 mm 2 m/s 756 mmHg 43%
    17:00 +19°C° 0 mm 1 m/s 756 mmHg 45%
    18:00 +16°C° 0 mm 1 m/s 756 mmHg 51%
    19:00 +14°C° 0 mm 1 m/s 756 mmHg 57%
    20:00 +12°C° 0 mm 1 m/s 756 mmHg 62%
    21:00 +12°C° 0 mm 1 m/s 757 mmHg 64%
    22:00 +11°C° 0 mm 1 m/s 757 mmHg 67%
    23:00 +10°C° 0 mm 1 m/s 757 mmHg 69%

    25 Aprilie, Joi

    Timp Temperatura Precipitaţii Vânt Presiune Umiditate
    00:00 +10°C° 0 mm 1 m/s 757 mmHg 70%
    01:00 +9°C° 0 mm 1 m/s 758 mmHg 72%
    02:00 +8°C° 0 mm 0 m/s 758 mmHg 74%
    03:00 +8°C° 0 mm 0 m/s 758 mmHg 74%
    04:00 +8°C° 0 mm 0 m/s 758 mmHg 74%
    05:00 +8°C° 0 mm 0 m/s 758 mmHg 74%
    06:00 +10°C° 0 mm 0 m/s 758 mmHg 66%
    07:00 +13°C° 0 mm 1 m/s 758 mmHg 58%
    08:00 +16°C° 0 mm 1 m/s 758 mmHg 51%
    09:00 +18°C° 0 mm 1 m/s 758 mmHg 46%
    10:00 +19°C° 0 mm 1 m/s 758 mmHg 41%
    11:00 +21°C° 0 mm 1 m/s 758 mmHg 36%
    12:00 +20°C° 0 mm 2 m/s 758 mmHg 35%
    13:00 +20°C° 0 mm 2 m/s 757 mmHg 34%
    14:00 +20°C° 0 mm 2 m/s 757 mmHg 34%
    15:00 +20°C° 0 mm 2 m/s 757 mmHg 36%
    16:00 +20°C° 0 mm 2 m/s 756 mmHg 39%
    17:00 +20°C° 0 mm 1 m/s 756 mmHg 41%
    18:00 +18°C° 0 mm 1 m/s 756 mmHg 47%
    19:00 +15°C° 0 mm 1 m/s 756 mmHg 53%
    20:00 +13°C° 0 mm 1 m/s 756 mmHg 59%
    21:00 +13°C° 0 mm 1 m/s 756 mmHg 62%
    22:00 +12°C° 0 mm 1 m/s 755 mmHg 65%
    23:00 +11°C° 0 mm 1 m/s 755 mmHg 67%
    Arată mai mult